EN

Hourly Weather Torfyanoe

Today, 8 May, Saturday

Time Temperature Precipitation Wind Pressure Humidity
00:00 +5°C° 0 mm 2 mps 740 mmHg 84%
01:00 +4°C° 0 mm 3 mps 740 mmHg 85%
02:00 +4°C° 0 mm 3 mps 739 mmHg 86%
03:00 +4°C° 0.1 mm 3 mps 739 mmHg 87%
04:00 +5°C° 0.1 mm 4 mps 739 mmHg 87%
05:00 +5°C° 0.1 mm 4 mps 739 mmHg 87%
06:00 +5°C° 0.2 mm 4 mps 738 mmHg 90%
07:00 +5°C° 0.2 mm 4 mps 738 mmHg 92%
08:00 +5°C° 0.2 mm 4 mps 738 mmHg 94%
09:00 +7°C° 0.1 mm 3 mps 738 mmHg 90%
10:00 +8°C° 0.1 mm 3 mps 738 mmHg 86%
11:00 +9°C° 0.1 mm 3 mps 738 mmHg 83%
12:00 +9°C° 0.1 mm 3 mps 738 mmHg 81%
13:00 +8°C° 0.1 mm 3 mps 738 mmHg 79%
14:00 +8°C° 0.1 mm 3 mps 739 mmHg 77%
15:00 +8°C° 0 mm 3 mps 739 mmHg 76%
16:00 +8°C° 0 mm 3 mps 739 mmHg 75%
17:00 +8°C° 0 mm 3 mps 739 mmHg 74%
18:00 +7°C° 0 mm 3 mps 739 mmHg 76%
19:00 +5°C° 0 mm 4 mps 739 mmHg 78%
20:00 +4°C° 0 mm 4 mps 739 mmHg 80%
21:00 +3°C° 0 mm 4 mps 739 mmHg 83%
22:00 +1°C° 0 mm 4 mps 740 mmHg 87%
23:00 0°C° 0 mm 4 mps 740 mmHg 90%

Tomorrow, 9 May, Sunday

Time Temperature Precipitation Wind Pressure Humidity
00:00 +1°C° 0 mm 4 mps 740 mmHg 90%
01:00 +1°C° 0 mm 4 mps 740 mmHg 91%
02:00 +1°C° 0 mm 4 mps 741 mmHg 91%
03:00 +1°C° 0 mm 4 mps 741 mmHg 89%
04:00 +1°C° 0 mm 4 mps 742 mmHg 86%
05:00 +1°C° 0 mm 4 mps 742 mmHg 83%
06:00 +2°C° 0 mm 5 mps 743 mmHg 75%
07:00 +3°C° 0 mm 5 mps 743 mmHg 66%
08:00 +5°C° 0 mm 5 mps 744 mmHg 58%
09:00 +7°C° 0 mm 5 mps 744 mmHg 52%
10:00 +8°C° 0 mm 5 mps 745 mmHg 46%
11:00 +9°C° 0 mm 5 mps 745 mmHg 40%
12:00 +10°C° 0 mm 5 mps 746 mmHg 38%
13:00 +10°C° 0 mm 5 mps 746 mmHg 35%
14:00 +10°C° 0 mm 5 mps 747 mmHg 33%
15:00 +10°C° 0 mm 5 mps 747 mmHg 35%
16:00 +11°C° 0 mm 4 mps 748 mmHg 38%
17:00 +11°C° 0 mm 4 mps 749 mmHg 40%
18:00 +9°C° 0 mm 3 mps 749 mmHg 47%
19:00 +7°C° 0 mm 2 mps 750 mmHg 55%
20:00 +4°C° 0 mm 2 mps 751 mmHg 62%
21:00 +4°C° 0 mm 2 mps 751 mmHg 64%
22:00 +4°C° 0 mm 1 mps 752 mmHg 67%
23:00 +4°C° 0 mm 1 mps 752 mmHg 69%

Day after tomorrow, 10 May, Monday

Time Temperature Precipitation Wind Pressure Humidity
00:00 +3°C° 0 mm 2 mps 752 mmHg 72%
01:00 +2°C° 0 mm 2 mps 753 mmHg 74%
02:00 +2°C° 0 mm 2 mps 753 mmHg 76%
03:00 +3°C° 0 mm 2 mps 753 mmHg 75%
04:00 +3°C° 0 mm 2 mps 754 mmHg 74%
05:00 +4°C° 0 mm 2 mps 754 mmHg 73%
06:00 +5°C° 0 mm 3 mps 754 mmHg 65%
07:00 +7°C° 0 mm 4 mps 754 mmHg 57%
08:00 +10°C° 0 mm 4 mps 754 mmHg 49%
09:00 +10°C° 0 mm 4 mps 754 mmHg 53%
10:00 +10°C° 0 mm 4 mps 754 mmHg 57%
11:00 +10°C° 0 mm 4 mps 754 mmHg 61%
12:00 +11°C° 0 mm 4 mps 754 mmHg 58%
13:00 +13°C° 0 mm 4 mps 754 mmHg 55%
14:00 +14°C° 0 mm 4 mps 754 mmHg 51%
15:00 +15°C° 0 mm 4 mps 754 mmHg 53%
16:00 +16°C° 0 mm 3 mps 754 mmHg 55%
17:00 +17°C° 0 mm 3 mps 754 mmHg 56%
18:00 +15°C° 0 mm 2 mps 754 mmHg 65%
19:00 +13°C° 0 mm 2 mps 755 mmHg 74%
20:00 +10°C° 0 mm 2 mps 755 mmHg 83%
21:00 +9°C° 0 mm 2 mps 755 mmHg 85%
22:00 +9°C° 0 mm 2 mps 755 mmHg 87%
23:00 +8°C° 0 mm 2 mps 756 mmHg 89%

11 May, Tuesday

Time Temperature Precipitation Wind Pressure Humidity
00:00 +8°C° 0 mm 2 mps 756 mmHg 90%
01:00 +8°C° 0 mm 2 mps 756 mmHg 90%
02:00 +8°C° 0 mm 2 mps 756 mmHg 91%
03:00 +8°C° 0 mm 2 mps 756 mmHg 90%
04:00 +8°C° 0 mm 2 mps 756 mmHg 88%
05:00 +8°C° 0 mm 2 mps 757 mmHg 87%
06:00 +12°C° 0 mm 2 mps 757 mmHg 78%
07:00 +14°C° 0 mm 2 mps 757 mmHg 69%
08:00 +16°C° 0 mm 2 mps 757 mmHg 60%
09:00 +17°C° 0 mm 3 mps 757 mmHg 56%
10:00 +18°C° 0 mm 3 mps 757 mmHg 52%
11:00 +19°C° 0 mm 3 mps 757 mmHg 48%
12:00 +20°C° 0 mm 3 mps 757 mmHg 47%
13:00 +20°C° 0 mm 3 mps 757 mmHg 46%
14:00 +21°C° 0 mm 3 mps 756 mmHg 45%
15:00 +20°C° 0 mm 3 mps 756 mmHg 49%
16:00 +20°C° 0 mm 2 mps 756 mmHg 52%
17:00 +19°C° 0 mm 2 mps 756 mmHg 56%
18:00 +17°C° 0 mm 2 mps 756 mmHg 64%
19:00 +15°C° 0 mm 2 mps 756 mmHg 72%
20:00 +13°C° 0 mm 2 mps 756 mmHg 80%
21:00 +13°C° 0 mm 2 mps 756 mmHg 82%
22:00 +12°C° 0 mm 2 mps 756 mmHg 85%
23:00 +10°C° 0 mm 2 mps 756 mmHg 87%

12 May, Wednesday

Time Temperature Precipitation Wind Pressure Humidity
00:00 +10°C° 0 mm 2 mps 756 mmHg 89%
01:00 +9°C° 0 mm 2 mps 756 mmHg 90%
02:00 +10°C° 0 mm 1 mps 756 mmHg 92%
03:00 +10°C° 0 mm 1 mps 756 mmHg 90%
04:00 +10°C° 0 mm 1 mps 756 mmHg 88%
05:00 +11°C° 0 mm 1 mps 756 mmHg 85%
06:00 +13°C° 0 mm 2 mps 756 mmHg 76%
07:00 +15°C° 0 mm 2 mps 756 mmHg 66%
08:00 +17°C° 0 mm 2 mps 756 mmHg 56%
09:00 +18°C° 0 mm 3 mps 756 mmHg 52%
10:00 +19°C° 0 mm 3 mps 755 mmHg 47%
11:00 +21°C° 0 mm 3 mps 755 mmHg 42%
12:00 +21°C° 0 mm 3 mps 755 mmHg 41%
13:00 +22°C° 0 mm 3 mps 755 mmHg 40%
14:00 +22°C° 0 mm 3 mps 755 mmHg 38%
15:00 +22°C° 0 mm 3 mps 754 mmHg 43%
16:00 +22°C° 0 mm 3 mps 754 mmHg 48%
17:00 +21°C° 0 mm 3 mps 754 mmHg 52%
18:00 +19°C° 0 mm 2 mps 754 mmHg 62%
19:00 +17°C° 0 mm 2 mps 754 mmHg 72%
20:00 +15°C° 0 mm 2 mps 754 mmHg 82%
21:00 +14°C° 0 mm 2 mps 754 mmHg 85%
22:00 +14°C° 0 mm 2 mps 754 mmHg 88%
23:00 +13°C° 0 mm 2 mps 754 mmHg 91%

13 May, Thursday

Time Temperature Precipitation Wind Pressure Humidity
00:00 +13°C° 0 mm 2 mps 754 mmHg 92%
01:00 +12°C° 0 mm 2 mps 754 mmHg 93%
02:00 +12°C° 0 mm 2 mps 754 mmHg 93%
03:00 +12°C° 0 mm 2 mps 754 mmHg 91%
04:00 +13°C° 0 mm 2 mps 754 mmHg 88%
05:00 +13°C° 0 mm 2 mps 754 mmHg 85%
06:00 +14°C° 0 mm 3 mps 754 mmHg 75%
07:00 +17°C° 0 mm 3 mps 753 mmHg 65%
08:00 +19°C° 0 mm 4 mps 753 mmHg 54%
09:00 +20°C° 0 mm 4 mps 753 mmHg 50%
10:00 +21°C° 0 mm 4 mps 753 mmHg 46%
11:00 +22°C° 0 mm 5 mps 752 mmHg 42%
12:00 +22°C° 0 mm 4 mps 752 mmHg 43%
13:00 +22°C° 0 mm 4 mps 752 mmHg 43%
14:00 +23°C° 0 mm 4 mps 751 mmHg 44%
15:00 +22°C° 0.2 mm 4 mps 751 mmHg 52%
16:00 +21°C° 0.2 mm 4 mps 751 mmHg 61%
17:00 +20°C° 0.2 mm 4 mps 751 mmHg 69%
18:00 +18°C° 0.1 mm 4 mps 751 mmHg 74%
19:00 +17°C° 0.1 mm 4 mps 751 mmHg 80%
20:00 +14°C° 0.1 mm 4 mps 751 mmHg 85%
21:00 +14°C° 0.1 mm 3 mps 751 mmHg 87%
22:00 +14°C° 0.1 mm 3 mps 751 mmHg 89%
23:00 +13°C° 0.1 mm 3 mps 751 mmHg 91%
Show more

We Need Your Consent

Meteoprog and our Service Providers may store and access personal data such as cookies, device identifiers or other similar technologies on your device and process such data to personalise content and ads, as well as provide social media features and to analyse the traffic.

  • Store and/or access information on your device

    Cookies, device identifiers or other information can be stored or accessed on your device for the purposes indicated above.

  • Personalised ads and content, ad and content measurement, audience insights, and products development

    Ads and content can be personalised based on a profile. More data can be added to better personalise ads and content. Ad and content performance can be measured. Insights about the audience who saw the ads and content can be derived. Such data can be used to develop or improve user’s experience, systems and software.

By clicking ‘I Agree’ you will allow the use of indicated cookies, device identifiers, web beacons or other similar technologies. Your settings can be changed in the browser on your device.

For certain purposes, legitimate interests may be relied on, rather than consent. You can read more about this in our Privacy and Cookie Policy.